Flag for Italy Weather past 2 weeks in Bologna, Italy

Now
75 °F

Clear.


Feels Like: 78 °F
Forecast: 63 / 71 °F
Wind: 9 mph from Southwest

Location: Bologna / Borgo Panigale

Current Time: Jul 29, 2014 at 3:41:57 AM

Latest Report: Jul 29, 2014 at 2:50 AM


Visibility: 10 mi

Pressure: 29.74 "Hg

Humidity: 57%

Dew point: 59 °F

Location of BolognaLocation

Historic Weather in Bologna — Graph

°F

Bologna temperature yesterday

Maximum temperature yesterday: 88 °F (at 2:20 PM)
Minimum temperature yesterday: 66 °F (at 3:20 AM)
Average temperature yesterday: 76 °F

Past Weeks' High & Low Weather Summary

 TemperatureHumidityPressure
High93 °F (Jul 19, 2:50 PM)100% (Jul 25, 3:20 AM)30.09 "Hg (Jul 25, 3:20 AM)
Low61 °F (Jul 21, 7:50 PM)26% (Jul 17, 6:20 PM)29.74 "Hg (Jul 21, 5:50 AM)
Average75 °F68%29.92 "Hg
* Reported Jul 14 2:20 AM — Jul 29 2:20 AM, Bologna, Weather by CustomWeather, © 2014

Note: Actual official high and low records may vary slightly from our data, if they occured in-between our weather recording intervals... More about our weather records

Advertising

Bologna weather history for previous 24 hours

 ConditionsComfort  
Time TempWeatherWind HumidityBarometerVisibility
2:20 AM
Jul 29
75 °FClear.12 mph57%29.74 "Hg10 mi
1:50 AM75 °FPassing clouds.8 mph61%29.74 "HgN/A
1:20 AM72 °FClear.2 mph73%29.74 "Hg10 mi
12:50 AM75 °FClear.5 mph57%29.77 "Hg10 mi
12:20 AM72 °FPassing clouds.5 mph65%29.77 "HgN/A
11:50 PM
Jul 28
75 °FPassing clouds.6 mph54%29.77 "HgN/A
11:20 PM73 °FClear.5 mph57%29.77 "Hg10 mi
10:50 PM75 °FPassing clouds.5 mph54%29.77 "HgN/A
10:20 PM77 °FPassing clouds.7 mph51%29.77 "HgN/A
9:50 PM77 °FPassing clouds.8 mph51%29.77 "HgN/A
9:20 PM79 °FScattered clouds.8 mph48%29.77 "HgN/A
8:50 PM79 °FScattered clouds.6 mph54%29.77 "HgN/A
8:20 PM82 °FScattered clouds.6 mph48%29.77 "HgN/A
7:50 PM82 °FScattered clouds.3 mph55%29.77 "HgN/A
7:20 PM81 °FScattered clouds.3 mph70%29.77 "HgN/A
6:50 PM79 °FScattered clouds.9 mph70%29.77 "HgN/A
6:20 PM77 °FScattered clouds.8 mph74%29.77 "HgN/A
5:50 PM75 °FScattered clouds.7 mph78%29.77 "HgN/A
5:20 PM77 °FThunderstorms. Scattered clouds.17 mph74%29.77 "Hg5 mi
4:50 PM86 °FScattered clouds.8 mph46%29.77 "HgN/A
4:20 PM88 °FScattered clouds.8 mph43%29.80 "HgN/A
3:50 PM88 °FPassing clouds.6 mph40%29.80 "HgN/A
3:20 PM88 °FPassing clouds.6 mph43%29.80 "HgN/A
2:50 PM88 °FPassing clouds.7 mph40%29.80 "HgN/A
2:20 PM88 °FPassing clouds.5 mph40%29.83 "HgN/A
1:50 PM86 °FPassing clouds.6 mph43%29.83 "HgN/A
1:20 PM86 °FSunny.5 mph46%29.83 "Hg10 mi
12:50 PM86 °FSunny.2 mph40%29.83 "Hg10 mi
11:50 AM84 °FPassing clouds.5 mph48%29.86 "HgN/A
11:20 AM84 °FSunny.5 mph43%29.86 "Hg10 mi
10:50 AM82 °FPassing clouds.6 mph48%29.86 "HgN/A
10:20 AM81 °FSunny.6 mph54%29.86 "Hg10 mi
9:50 AM79 °FPassing clouds.5 mph58%29.86 "HgN/A
9:20 AM77 °FSunny.6 mph65%29.89 "Hg10 mi
8:50 AM75 °FSunny.7 mph65%29.89 "Hg10 mi
8:20 AM70 °FPassing clouds.9 mph78%29.89 "HgN/A
7:50 AM72 °FSunny.9 mph73%29.86 "Hg10 mi
7:20 AM68 °FSunny.9 mph78%29.86 "Hg10 mi
6:50 AM68 °FClear.8 mph78%29.86 "Hg10 mi
6:20 AM68 °FClear.9 mph78%29.86 "Hg10 mi
5:50 AM66 °FClear.8 mph88%29.86 "Hg10 mi
5:20 AM66 °FClear.9 mph88%29.86 "Hg10 mi
4:20 AM66 °FClear.8 mph88%29.86 "Hg10 mi
3:50 AM66 °FClear.8 mph88%29.89 "Hg10 mi
3:20 AM66 °FClear.7 mph88%29.89 "Hg10 mi
Weather by CustomWeather, © 2014

See weather overviewHow to use our weather pages